Location: M.A.R.S.Observatory
(35.4031°N, 81.5481°W)
Time: 04:50:23
(UTC-04:00)

SL-8 R/B - Visible Passes

Search period start: 24 June 2017 00:00
Search period end: 04 July 2017 00:00
Orbit: 657 x 667 km, 48.4° (Epoch: 23 June)

Date Brightness Start Highest point End Pass type
(mag) Time Alt. Az. Time Alt. Az. Time Alt. Az.
24 Jun 3.9 21:09:54 10° NW 21:14:41 70° NE 21:19:26 10° ESE visible
24 Jun 5.4 22:53:24 10° W 22:56:50 20° SW 22:57:47 19° SSW visible
25 Jun 4.3 21:41:06 10° WNW 21:45:41 48° SW 21:49:32 14° SSE visible
26 Jun 5.7 22:13:10 10° W 22:16:25 18° SW 22:19:20 11° S visible
28 Jun 5.9 21:32:58 10° W 21:36:00 17° SW 21:39:02 10° S visible
